Regional Weather Roundup
Issued by NWS

Home | Current Version | Previous Version | Text Only | Print | Product List | Glossary Off
Versions: 1 2 3 4 5 6 7 8 9 10 11 12 13 14 15 16 17 18 19 20 21 22 23 24 25 26 27 28 29 30 31 32 33 34 35 36 37 38 39 40 41 42 43 44 45 46 47 48 49 50

000
ASUS44 KMEG 022200
RWRTN
TENNESSEE HOURLY STATE WEATHER ROUNDUP
NATIONAL WEATHER SERVICE MEMPHIS TN
500 PM CDT MON MAY 02 2016

TNZ002-004-019-021-049-052-054-088>092-022300-
WEST TENNESSEE

CITY           SKY/WX    TMP DP  RH WIND       PRES   REMARKS
MEMPHIS INTL   CLOUDY    65  57  75 NW12      29.97R
NWS MEMPHIS      N/A     64 N/A N/A MISG        N/A
JACKSON        CLOUDY    62  57  83 N5        29.94F
DYERSBURG      PTSUNNY   64  54  68 NW8         N/A
UNION CITY     CLOUDY    64  54  68 NW8       29.95S
LEXINGTON      CLOUDY    61  59  94 NW7       29.93F
$$

TNZ008-025-027-028-033-062-065-066-022300-
NORTH MIDDLE TENNESSEE

CITY           SKY/WX    TMP DP  RH WIND       PRES   REMARKS
NASHVILLE      PTSUNNY   66  60  81 NW8       29.94S
CLARKSVILLE    CLOUDY    61  55  81 W5        29.95S
COOKEVILLE     CLOUDY    64  63  94 CALM      29.93R
CROSSVILLE     MOSUNNY   63  57  81 CALM      29.94F
$$

TNZ061-075-076-078-094-096-097-022300-
SOUTH MIDDLE TENNESSEE

CITY           SKY/WX    TMP DP  RH WIND       PRES   REMARKS
TULLAHOMA      CLOUDY    63  63 100 CALM      29.96F
WINCHESTER     MOSUNNY   64  63  94 NW9       29.95R
MCMINNVILLE    CLOUDY    64  61  88 CALM      29.95R
COLUMBIA       CLOUDY   N/A N/A N/A S3        29.93R
SHELBYVILLE    CLOUDY    66  63  88 CALM      29.95S
$$

TNZ017-018-042-046-047-022300-
NORTHEAST TENNESSEE

CITY           SKY/WX    TMP DP  RH WIND       PRES   REMARKS
TRI CITIES     CLOUDY    75  61  61 NW8       29.91S
$$

TNZ012-013-036-069-073-074-022300-
CENTRAL EAST TENNESSEE

CITY           SKY/WX    TMP DP  RH WIND       PRES   REMARKS
KNOXVILLE      TSTM      67  63  87 W10       29.91R
OAK RIDGE      LGT RAIN  65  61  87 VRB3      29.96R
GATLINBURG     MOCLDY    70  61  73 VRB6      29.90R
$$

TNZ083-085-099-022300-
SOUTHEAST TENNESSEE

CITY           SKY/WX    TMP DP  RH WIND       PRES   REMARKS
CHATTANOOGA    TSTM      70  65  84 NW10      29.92R FOG
$$

SKY/WX REPORTED AS FAIR MEANS FEW OR NO CLOUDS BELOW
12 THOUSAND FEET.





USA.gov is the U.S. government's official web portal to all federal, state and local government web resources and services.